Time,TemperatureF,DewpointF,PressureIn,WindDirection,WindDirectionDegrees,WindSpeedMPH,WindSpeedGustMPH,Humidity,HourlyPrecipIn,Conditions,Clouds,dailyrainin,SoftwareType,DateUTC
2013-03-22 00:03:00,9.8,4.6,30.05,NW,321,0.0,0.0,79,0.00,,CLR,0.00,VWS V14.01,2013-03-22 05:03:00,
2013-03-22 00:09:00,9.4,4.5,30.06,NW,321,0.0,0.0,80,0.00,,CLR,0.00,VWS V14.01,2013-03-22 05:09:00,
2013-03-22 00:14:00,9.2,4.3,30.06,NW,321,0.0,0.0,80,0.00,,CLR,0.00,VWS V14.01,2013-03-22 05:14:00,
2013-03-22 00:19:00,9.0,4.4,30.06,NW,321,1.0,1.0,81,0.00,,CLR,0.00,VWS V14.01,2013-03-22 05:19:00,
2013-03-22 00:24:00,8.8,4.4,30.06,NW,321,0.0,0.0,82,0.00,,CLR,0.00,VWS V14.01,2013-03-22 05:24:00,
2013-03-22 00:30:00,8.7,4.6,30.06,NW,321,0.0,1.0,83,0.00,,CLR,0.00,VWS V14.01,2013-03-22 05:30:00,
2013-03-22 00:35:00,8.7,4.9,30.06,NW,321,0.0,2.0,84,0.00,,CLR,0.00,VWS V14.01,2013-03-22 05:35:00,
2013-03-22 00:40:00,8.9,5.3,30.06,NW,321,0.0,0.0,85,0.00,,CLR,0.00,VWS V14.01,2013-03-22 05:40:00,
2013-03-22 00:46:00,9.2,5.6,30.06,NW,321,0.0,0.0,85,0.00,,CLR,0.00,VWS V14.01,2013-03-22 05:46:00,
2013-03-22 00:52:00,9.5,6.2,30.06,NW,321,0.0,0.0,86,0.00,,CLR,0.00,VWS V14.01,2013-03-22 05:52:00,
2013-03-22 00:58:00,9.9,6.6,30.06,NW,321,0.0,0.0,86,0.00,,CLR,0.00,VWS V14.01,2013-03-22 05:58:00,
2013-03-22 01:03:00,10.2,6.6,30.06,NW,321,0.0,0.0,85,0.00,,CLR,0.00,VWS V14.01,2013-03-22 06:03:00,
2013-03-22 01:08:00,10.3,6.7,30.06,NW,321,0.0,0.0,85,0.00,,CLR,0.00,VWS V14.01,2013-03-22 06:08:00,
2013-03-22 01:14:00,10.5,6.9,30.06,NW,321,0.0,0.0,85,0.00,,CLR,0.00,VWS V14.01,2013-03-22 06:14:00,
2013-03-22 01:19:00,10.5,6.6,30.06,NW,321,0.0,0.0,84,0.00,,CLR,0.00,VWS V14.01,2013-03-22 06:19:00,
2013-03-22 01:24:00,10.5,6.6,30.06,NW,321,0.0,0.0,84,0.00,,CLR,0.00,VWS V14.01,2013-03-22 06:24:00,
2013-03-22 01:29:00,10.4,6.5,30.06,NW,321,0.0,0.0,84,0.00,,CLR,0.00,VWS V14.01,2013-03-22 06:29:00,
2013-03-22 01:34:00,10.2,6.1,30.06,NW,321,0.0,0.0,83,0.00,,CLR,0.00,VWS V14.01,2013-03-22 06:34:00,
2013-03-22 01:39:00,10.0,5.9,30.06,NW,321,0.0,0.0,83,0.00,,CLR,0.00,VWS V14.01,2013-03-22 06:39:00,
2013-03-22 01:44:00,9.8,5.7,30.06,NW,321,0.0,0.0,83,0.00,,CLR,0.00,VWS V14.01,2013-03-22 06:44:00,
2013-03-22 01:49:00,9.6,5.5,30.06,NW,321,0.0,0.0,83,0.00,,CLR,0.00,VWS V14.01,2013-03-22 06:49:00,
2013-03-22 01:55:00,9.5,5.7,30.06,NW,321,0.0,2.0,84,0.00,,CLR,0.00,VWS V14.01,2013-03-22 06:55:00,
2013-03-22 02:00:00,9.5,5.9,30.06,NW,321,0.0,2.0,85,0.00,,CLR,0.00,VWS V14.01,2013-03-22 07:00:00,
2013-03-22 02:06:00,9.5,5.9,30.06,NW,321,0.0,0.0,85,0.00,,CLR,0.00,VWS V14.01,2013-03-22 07:06:00,
2013-03-22 02:11:00,9.8,6.2,30.06,NW,321,0.0,0.0,85,0.00,,CLR,0.00,VWS V14.01,2013-03-22 07:11:00,
2013-03-22 02:16:00,9.8,6.2,30.06,NW,321,0.0,0.0,85,0.00,,CLR,0.00,VWS V14.01,2013-03-22 07:16:00,
2013-03-22 02:22:00,9.6,5.8,30.06,NW,321,0.0,0.0,84,0.00,,CLR,0.00,VWS V14.01,2013-03-22 07:22:00,
2013-03-22 02:27:00,9.5,5.7,30.06,NW,321,0.0,0.0,84,0.00,,CLR,0.00,VWS V14.01,2013-03-22 07:27:00,
2013-03-22 02:32:00,9.4,5.6,30.06,NW,321,0.0,0.0,84,0.00,,CLR,0.00,VWS V14.01,2013-03-22 07:32:00,
2013-03-22 02:38:00,9.2,5.4,30.06,NW,321,0.0,0.0,84,0.00,,CLR,0.00,VWS V14.01,2013-03-22 07:38:00,
2013-03-22 02:43:00,9.0,4.9,30.06,NW,321,0.0,0.0,83,0.00,,CLR,0.00,VWS V14.01,2013-03-22 07:43:00,
2013-03-22 02:48:00,8.8,4.7,30.06,NW,321,0.0,0.0,83,0.00,,CLR,0.00,VWS V14.01,2013-03-22 07:48:00,
2013-03-22 02:53:00,8.6,4.5,30.06,NW,321,0.0,0.0,83,0.00,,CLR,0.00,VWS V14.01,2013-03-22 07:53:00,
2013-03-22 02:58:00,8.3,4.5,30.06,NW,321,0.0,0.0,84,0.00,,CLR,0.00,VWS V14.01,2013-03-22 07:58:00,
2013-03-22 03:03:00,8.2,4.4,30.06,NW,321,0.0,0.0,84,0.00,,CLR,0.00,VWS V14.01,2013-03-22 08:03:00,
2013-03-22 03:08:00,8.1,4.3,30.07,NW,321,0.0,0.0,84,0.00,,CLR,0.00,VWS V14.01,2013-03-22 08:08:00,
2013-03-22 03:13:00,7.9,4.1,30.07,NW,321,0.0,0.0,84,0.00,,CLR,0.00,VWS V14.01,2013-03-22 08:13:00,
2013-03-22 03:18:00,7.8,4.2,30.07,NW,321,0.0,0.0,85,0.00,,CLR,0.00,VWS V14.01,2013-03-22 08:18:00,
2013-03-22 03:23:00,7.6,3.8,30.07,NW,321,0.0,0.0,84,0.00,,CLR,0.00,VWS V14.01,2013-03-22 08:23:00,
2013-03-22 03:28:00,7.3,3.5,30.06,NW,321,0.0,0.0,84,0.00,,CLR,0.00,VWS V14.01,2013-03-22 08:28:00,
2013-03-22 03:33:00,7.1,3.5,30.06,NW,321,0.0,0.0,85,0.00,,CLR,0.00,VWS V14.01,2013-03-22 08:33:00,
2013-03-22 03:38:00,7.0,3.5,30.06,NW,321,0.0,0.0,85,0.00,,CLR,0.00,VWS V14.01,2013-03-22 08:38:00,
2013-03-22 03:43:00,7.0,3.7,30.06,NW,321,0.0,0.0,86,0.00,,CLR,0.00,VWS V14.01,2013-03-22 08:43:00,
2013-03-22 03:48:00,6.9,3.6,30.06,NW,321,0.0,0.0,86,0.00,,CLR,0.00,VWS V14.01,2013-03-22 08:48:00,
2013-03-22 03:54:00,6.8,3.5,30.06,NW,321,0.0,0.0,86,0.00,,CLR,0.00,VWS V14.01,2013-03-22 08:54:00,
2013-03-22 03:59:00,6.5,3.2,30.06,NW,321,0.0,0.0,86,0.00,,CLR,0.00,VWS V14.01,2013-03-22 08:59:00,
2013-03-22 04:04:00,6.4,3.1,30.06,NW,321,0.0,0.0,86,0.00,,CLR,0.00,VWS V14.01,2013-03-22 09:04:00,
2013-03-22 04:09:00,6.3,3.0,30.05,NW,321,0.0,0.0,86,0.00,,CLR,0.00,VWS V14.01,2013-03-22 09:09:00,
2013-03-22 04:14:00,6.0,2.7,30.05,NW,321,0.0,0.0,86,0.00,,CLR,0.00,VWS V14.01,2013-03-22 09:14:00,
2013-03-22 04:19:00,6.0,2.7,30.05,NW,321,0.0,0.0,86,0.00,,CLR,0.00,VWS V14.01,2013-03-22 09:19:00,
2013-03-22 04:24:00,6.5,3.7,30.04,NW,321,0.0,0.0,88,0.00,,CLR,0.00,VWS V14.01,2013-03-22 09:24:00,
2013-03-22 04:29:00,7.3,5.0,30.04,NW,321,0.0,0.0,90,0.00,,CLR,0.00,VWS V14.01,2013-03-22 09:29:00,
2013-03-22 04:35:00,7.8,5.5,30.04,NW,321,0.0,0.0,90,0.00,,CLR,0.00,VWS V14.01,2013-03-22 09:35:00,
2013-03-22 04:41:00,8.3,6.0,30.04,NW,321,0.0,0.0,90,0.00,,CLR,0.00,VWS V14.01,2013-03-22 09:41:00,
2013-03-22 04:46:00,8.6,6.0,30.04,NW,321,0.0,0.0,89,0.00,,CLR,0.00,VWS V14.01,2013-03-22 09:46:00,
2013-03-22 04:51:00,8.7,6.1,30.04,NW,321,0.0,0.0,89,0.00,,CLR,0.00,VWS V14.01,2013-03-22 09:51:00,
2013-03-22 04:56:00,8.6,5.8,30.04,NW,321,0.0,0.0,88,0.00,,CLR,0.00,VWS V14.01,2013-03-22 09:56:00,
2013-03-22 05:01:00,8.6,5.8,30.04,NW,321,0.0,0.0,88,0.00,,CLR,0.00,VWS V14.01,2013-03-22 10:01:00,
2013-03-22 05:06:00,8.7,5.9,30.04,NW,321,0.0,0.0,88,0.00,,CLR,0.00,VWS V14.01,2013-03-22 10:06:00,
2013-03-22 05:11:00,8.7,5.9,30.04,NW,321,0.0,0.0,88,0.00,,CLR,0.00,VWS V14.01,2013-03-22 10:11:00,
2013-03-22 05:16:00,8.3,5.0,30.04,NW,321,0.0,0.0,86,0.00,,CLR,0.00,VWS V14.01,2013-03-22 10:16:00,
2013-03-22 05:22:00,7.8,4.2,30.04,NW,321,0.0,0.0,85,0.00,,CLR,0.00,VWS V14.01,2013-03-22 10:22:00,
2013-03-22 05:28:00,7.4,3.8,30.04,NW,321,0.0,0.0,85,0.00,,CLR,0.00,VWS V14.01,2013-03-22 10:28:00,
2013-03-22 05:33:00,7.0,3.5,30.03,NW,321,0.0,0.0,85,0.00,,CLR,0.00,VWS V14.01,2013-03-22 10:33:00,
2013-03-22 05:38:00,6.6,3.1,30.04,NW,321,0.0,0.0,85,0.00,,CLR,0.00,VWS V14.01,2013-03-22 10:38:00,
2013-03-22 05:43:00,6.3,2.8,30.04,NW,321,0.0,0.0,85,0.00,,CLR,0.00,VWS V14.01,2013-03-22 10:43:00,
2013-03-22 05:48:00,5.8,2.3,30.04,NW,321,0.0,0.0,85,0.00,,CLR,0.00,VWS V14.01,2013-03-22 10:48:00,
2013-03-22 05:53:00,5.4,1.9,30.04,NW,321,0.0,0.0,85,0.00,,CLR,0.00,VWS V14.01,2013-03-22 10:53:00,
2013-03-22 05:58:00,5.1,1.8,30.04,NW,321,0.0,0.0,86,0.00,,CLR,0.00,VWS V14.01,2013-03-22 10:58:00,
2013-03-22 06:03:00,4.9,1.6,30.04,NW,321,0.0,0.0,86,0.00,,CLR,0.00,VWS V14.01,2013-03-22 11:03:00,
2013-03-22 06:08:00,4.7,1.7,30.04,NW,321,0.0,0.0,87,0.00,,CLR,0.00,VWS V14.01,2013-03-22 11:08:00,
2013-03-22 06:13:00,4.6,1.3,30.04,NW,321,0.0,0.0,86,0.00,,CLR,0.00,VWS V14.01,2013-03-22 11:13:00,
2013-03-22 06:19:00,4.2,0.9,30.04,NW,321,0.0,0.0,86,0.00,,CLR,0.00,VWS V14.01,2013-03-22 11:19:00,
2013-03-22 06:24:00,4.0,0.8,30.04,NW,321,0.0,0.0,86,0.00,,CLR,0.00,VWS V14.01,2013-03-22 11:24:00,
2013-03-22 06:29:00,3.9,0.9,30.04,NW,321,0.0,0.0,87,0.00,,CLR,0.00,VWS V14.01,2013-03-22 11:29:00,
2013-03-22 06:34:00,4.1,1.3,30.05,NW,321,0.0,0.0,88,0.00,,CLR,0.00,VWS V14.01,2013-03-22 11:34:00,
2013-03-22 06:39:00,4.1,1.3,30.05,NW,321,0.0,0.0,88,0.00,,CLR,0.00,VWS V14.01,2013-03-22 11:39:00,
2013-03-22 06:44:00,4.1,1.3,30.05,NW,321,0.0,0.0,88,0.00,,CLR,0.00,VWS V14.01,2013-03-22 11:44:00,
2013-03-22 06:49:00,4.1,1.3,30.05,NW,321,0.0,0.0,88,0.00,,CLR,0.00,VWS V14.01,2013-03-22 11:49:00,
2013-03-22 06:55:00,4.0,1.0,30.05,NW,321,0.0,0.0,87,0.00,,CLR,0.00,VWS V14.01,2013-03-22 11:55:00,
2013-03-22 07:00:00,3.8,1.0,30.05,NW,321,0.0,0.0,88,0.00,,CLR,0.00,VWS V14.01,2013-03-22 12:00:00,
2013-03-22 07:05:00,4.0,1.2,30.05,NW,321,0.0,0.0,88,0.00,,CLR,0.00,VWS V14.01,2013-03-22 12:05:00,
2013-03-22 07:11:00,4.1,1.3,30.05,NW,321,0.0,0.0,88,0.00,,CLR,0.00,VWS V14.01,2013-03-22 12:11:00,
2013-03-22 07:16:00,4.1,1.3,30.05,NW,321,0.0,0.0,88,0.00,,CLR,0.00,VWS V14.01,2013-03-22 12:16:00,
2013-03-22 07:22:00,4.1,1.6,30.06,NW,321,0.0,0.0,89,0.00,,CLR,0.00,VWS V14.01,2013-03-22 12:22:00,
2013-03-22 07:28:00,3.9,1.1,30.05,NW,321,0.0,0.0,88,0.00,,CLR,0.00,VWS V14.01,2013-03-22 12:28:00,
2013-03-22 07:34:00,3.9,1.1,30.06,NW,321,0.0,0.0,88,0.00,,CLR,0.00,VWS V14.01,2013-03-22 12:34:00,
2013-03-22 07:39:00,4.1,1.6,30.06,NW,321,0.0,0.0,89,0.00,,CLR,0.00,VWS V14.01,2013-03-22 12:39:00,
2013-03-22 07:44:00,4.3,1.8,30.06,NW,321,0.0,0.0,89,0.00,,CLR,0.00,VWS V14.01,2013-03-22 12:44:00,
2013-03-22 07:49:00,4.6,2.3,30.06,NW,321,1.0,2.0,90,0.00,,CLR,0.00,VWS V14.01,2013-03-22 12:49:00,
2013-03-22 07:54:00,5.0,2.7,30.06,NW,321,2.0,2.0,90,0.00,,CLR,0.00,VWS V14.01,2013-03-22 12:54:00,
2013-03-22 07:59:00,5.4,3.1,30.06,NW,321,2.0,2.0,90,0.00,,CLR,0.00,VWS V14.01,2013-03-22 12:59:00,
2013-03-22 08:04:00,5.6,3.1,30.06,NW,321,2.0,2.0,89,0.00,,CLR,0.00,VWS V14.01,2013-03-22 13:04:00,
2013-03-22 08:10:00,5.8,3.3,30.06,NW,321,2.0,2.0,89,0.00,,CLR,0.00,VWS V14.01,2013-03-22 13:10:00,
2013-03-22 08:15:00,6.0,3.5,30.06,NW,321,3.0,3.0,89,0.00,,CLR,0.00,VWS V14.01,2013-03-22 13:15:00,
2013-03-22 08:20:00,6.4,3.9,30.06,NW,321,2.0,3.0,89,0.00,,CLR,0.00,VWS V14.01,2013-03-22 13:20:00,
2013-03-22 08:25:00,6.9,4.3,30.06,NW,321,1.0,3.0,89,0.00,,CLR,0.00,VWS V14.01,2013-03-22 13:25:00,
2013-03-22 08:30:00,7.5,4.9,30.06,NW,321,2.0,3.0,89,0.00,,CLR,0.00,VWS V14.01,2013-03-22 13:30:00,
2013-03-22 08:35:00,7.9,5.3,30.06,NW,321,3.0,3.0,89,0.00,,CLR,0.00,VWS V14.01,2013-03-22 13:35:00,
2013-03-22 08:40:00,8.2,5.4,30.05,NW,321,3.0,3.0,88,0.00,,CLR,0.00,VWS V14.01,2013-03-22 13:40:00,
2013-03-22 08:45:00,8.6,5.8,30.05,WNW,288,3.0,3.0,88,0.00,,CLR,0.00,VWS V14.01,2013-03-22 13:45:00,
2013-03-22 08:50:00,9.0,6.2,30.05,WNW,288,2.0,3.0,88,0.00,,CLR,0.00,VWS V14.01,2013-03-22 13:50:00,
2013-03-22 08:55:00,9.5,6.4,30.05,WNW,288,1.0,3.0,87,0.00,,CLR,0.00,VWS V14.01,2013-03-22 13:55:00,
2013-03-22 09:00:00,10.1,7.0,30.05,WNW,288,0.0,2.0,87,0.00,,CLR,0.00,VWS V14.01,2013-03-22 14:00:00,
2013-03-22 09:06:00,10.9,7.5,30.05,WNW,288,0.0,2.0,86,0.00,,CLR,0.00,VWS V14.01,2013-03-22 14:06:00,
2013-03-22 09:11:00,11.7,8.1,30.05,WNW,288,2.0,3.0,85,0.00,,CLR,0.00,VWS V14.01,2013-03-22 14:11:00,
2013-03-22 09:16:00,12.5,8.6,30.05,WNW,288,3.0,3.0,84,0.00,,CLR,0.00,VWS V14.01,2013-03-22 14:16:00,
2013-03-22 09:21:00,13.1,8.9,30.05,WNW,288,0.0,1.0,83,0.00,,CLR,0.00,VWS V14.01,2013-03-22 14:21:00,
2013-03-22 09:26:00,13.6,9.1,30.05,WNW,288,0.0,0.0,82,0.00,,CLR,0.00,VWS V14.01,2013-03-22 14:26:00,
2013-03-22 09:32:00,14.3,9.3,30.05,WNW,288,0.0,1.0,80,0.00,,CLR,0.00,VWS V14.01,2013-03-22 14:32:00,
2013-03-22 09:37:00,14.5,9.2,30.05,WNW,288,0.0,0.0,79,0.00,,CLR,0.00,VWS V14.01,2013-03-22 14:37:00,
2013-03-22 09:42:00,14.9,9.6,30.05,WNW,288,0.0,0.0,79,0.00,,CLR,0.00,VWS V14.01,2013-03-22 14:42:00,
2013-03-22 09:48:00,15.4,9.8,30.05,WNW,288,0.0,0.0,78,0.00,,CLR,0.00,VWS V14.01,2013-03-22 14:48:00,
2013-03-22 09:53:00,15.9,10.0,30.05,WNW,288,0.0,1.0,77,0.00,,CLR,0.00,VWS V14.01,2013-03-22 14:53:00,
2013-03-22 09:58:00,16.1,9.9,30.05,WNW,288,0.0,1.0,76,0.00,,CLR,0.00,VWS V14.01,2013-03-22 14:58:00,
2013-03-22 10:03:00,16.4,10.2,30.05,WNW,288,0.0,0.0,76,0.00,,CLR,0.00,VWS V14.01,2013-03-22 15:03:00,
2013-03-22 10:09:00,16.7,10.5,30.04,WNW,288,0.0,0.0,76,0.00,,CLR,0.00,VWS V14.01,2013-03-22 15:09:00,
2013-03-22 10:14:00,17.2,10.9,30.04,WNW,288,0.0,0.0,76,0.00,,CLR,0.00,VWS V14.01,2013-03-22 15:14:00,
2013-03-22 10:19:00,17.9,11.6,30.04,WNW,288,0.0,1.0,76,0.00,,CLR,0.00,VWS V14.01,2013-03-22 15:19:00,
2013-03-22 10:24:00,18.6,12.0,30.04,WNW,288,0.0,0.0,75,0.00,,CLR,0.00,VWS V14.01,2013-03-22 15:24:00,
2013-03-22 10:29:00,19.4,12.5,30.04,WNW,288,0.0,1.0,74,0.00,,CLR,0.00,VWS V14.01,2013-03-22 15:29:00,
2013-03-22 10:34:00,20.0,12.8,30.04,WNW,288,1.0,2.0,73,0.00,,CLR,0.00,VWS V14.01,2013-03-22 15:34:00,
2013-03-22 10:39:00,20.5,12.9,30.04,West,261,3.0,4.0,72,0.00,,CLR,0.00,VWS V14.01,2013-03-22 15:39:00,
2013-03-22 10:44:00,20.9,13.0,30.04,WSW,252,0.0,1.0,71,0.00,,CLR,0.00,VWS V14.01,2013-03-22 15:44:00,
2013-03-22 10:49:00,21.2,13.3,30.04,WSW,252,2.0,2.0,71,0.00,,CLR,0.00,VWS V14.01,2013-03-22 15:49:00,
2013-03-22 10:54:00,21.5,13.6,30.05,WSW,252,2.0,2.0,71,0.00,,CLR,0.00,VWS V14.01,2013-03-22 15:54:00,
2013-03-22 10:59:00,21.7,13.4,30.05,WSW,252,0.0,1.0,70,0.00,,CLR,0.00,VWS V14.01,2013-03-22 15:59:00,
2013-03-22 11:05:00,22.1,13.2,30.04,WSW,252,0.0,1.0,68,0.00,,CLR,0.00,VWS V14.01,2013-03-22 16:05:00,
2013-03-22 11:10:00,22.5,13.9,30.04,WSW,253,0.0,1.0,69,0.00,,CLR,0.00,VWS V14.01,2013-03-22 16:10:00,
2013-03-22 11:15:00,23.0,14.0,30.04,WSW,252,0.0,1.0,68,0.00,,CLR,0.00,VWS V14.01,2013-03-22 16:15:00,
2013-03-22 11:20:00,23.8,14.5,30.04,WSW,252,0.0,0.0,67,0.00,,CLR,0.00,VWS V14.01,2013-03-22 16:20:00,
2013-03-22 11:25:00,24.8,14.4,30.04,WSW,252,0.0,0.0,64,0.00,,CLR,0.00,VWS V14.01,2013-03-22 16:25:00,
2013-03-22 11:30:00,25.6,14.8,30.04,WSW,252,0.0,0.0,63,0.00,,CLR,0.00,VWS V14.01,2013-03-22 16:30:00,
2013-03-22 11:35:00,26.2,15.0,30.04,WSW,253,0.0,0.0,62,0.00,,CLR,0.00,VWS V14.01,2013-03-22 16:35:00,
2013-03-22 11:40:00,27.1,15.4,30.04,WSW,252,0.0,0.0,61,0.00,,CLR,0.00,VWS V14.01,2013-03-22 16:40:00,
2013-03-22 11:45:00,28.2,15.7,30.04,WSW,253,0.0,0.0,59,0.00,,CLR,0.00,VWS V14.01,2013-03-22 16:45:00,
2013-03-22 11:50:00,28.9,15.6,30.04,WSW,253,0.0,1.0,57,0.00,,CLR,0.00,VWS V14.01,2013-03-22 16:50:00,
2013-03-22 11:55:00,29.6,16.2,30.04,WSW,253,0.0,1.0,57,0.00,,CLR,0.00,VWS V14.01,2013-03-22 16:55:00,
2013-03-22 12:00:00,30.3,16.5,30.04,WSW,253,0.0,1.0,56,0.00,,CLR,0.00,VWS V14.01,2013-03-22 17:00:00,
2013-03-22 12:05:00,30.8,17.4,30.04,WSW,253,0.0,3.0,57,0.00,,CLR,0.00,VWS V14.01,2013-03-22 17:05:00,
2013-03-22 12:10:00,30.8,17.4,30.03,WSW,253,0.0,1.0,57,0.00,,CLR,0.00,VWS V14.01,2013-03-22 17:10:00,
2013-03-22 12:15:00,30.5,16.7,30.04,WSW,253,2.0,2.0,56,0.00,,CLR,0.00,VWS V14.01,2013-03-22 17:15:00,
2013-03-22 12:20:00,30.1,16.7,30.03,WSW,253,1.0,3.0,57,0.00,,CLR,0.00,VWS V14.01,2013-03-22 17:20:00,
2013-03-22 12:25:00,30.2,17.2,30.03,WSW,253,0.0,0.0,58,0.00,,CLR,0.00,VWS V14.01,2013-03-22 17:25:00,
2013-03-22 12:31:00,30.9,17.9,30.03,West,263,0.0,0.0,58,0.00,,CLR,0.00,VWS V14.01,2013-03-22 17:31:00,
2013-03-22 12:36:00,31.0,17.6,30.03,West,263,0.0,0.0,57,0.00,,CLR,0.00,VWS V14.01,2013-03-22 17:36:00,
2013-03-22 12:41:00,31.2,17.3,30.03,West,263,0.0,0.0,56,0.00,,CLR,0.00,VWS V14.01,2013-03-22 17:41:00,
2013-03-22 12:47:00,31.1,17.2,30.04,WSW,251,0.0,1.0,56,0.00,,CLR,0.00,VWS V14.01,2013-03-22 17:47:00,
2013-03-22 12:52:00,31.3,17.9,30.03,WSW,251,0.0,1.0,57,0.01,,CLR,0.01,VWS V14.01,2013-03-22 17:52:00,
2013-03-22 12:57:00,31.8,18.3,30.03,WSW,251,0.0,2.0,57,0.01,,CLR,0.01,VWS V14.01,2013-03-22 17:57:00,
2013-03-22 13:02:00,32.1,17.8,30.03,WSW,251,0.0,0.0,55,0.01,,CLR,0.01,VWS V14.01,2013-03-22 18:02:00,
2013-03-22 13:07:00,32.2,17.0,30.03,SW,228,1.0,1.0,53,0.01,,CLR,0.01,VWS V14.01,2013-03-22 18:07:00,
2013-03-22 13:12:00,32.1,17.8,30.03,SW,236,0.0,0.0,55,0.01,,CLR,0.01,VWS V14.01,2013-03-22 18:12:00,
2013-03-22 13:17:00,32.2,17.4,30.03,SW,236,0.0,1.0,54,0.01,,CLR,0.01,VWS V14.01,2013-03-22 18:17:00,
2013-03-22 13:22:00,32.5,17.3,30.03,SW,236,0.0,1.0,53,0.01,,CLR,0.01,VWS V14.01,2013-03-22 18:22:00,
2013-03-22 13:27:00,32.7,17.0,30.03,SW,236,0.0,0.0,52,0.01,,CLR,0.01,VWS V14.01,2013-03-22 18:27:00,
2013-03-22 13:32:00,32.9,17.2,30.03,SW,236,0.0,0.0,52,0.01,,CLR,0.01,VWS V14.01,2013-03-22 18:32:00,
2013-03-22 13:38:00,33.3,17.1,30.03,SW,236,0.0,0.0,51,0.02,,CLR,0.02,VWS V14.01,2013-03-22 18:38:00,
2013-03-22 13:43:00,33.7,18.4,30.03,SW,236,0.0,0.0,53,0.02,,CLR,0.02,VWS V14.01,2013-03-22 18:43:00,
2013-03-22 13:48:00,34.0,18.2,30.03,SW,236,1.0,1.0,52,0.02,,CLR,0.02,VWS V14.01,2013-03-22 18:48:00,
2013-03-22 13:53:00,33.6,16.5,30.03,South,191,3.0,3.0,49,0.01,,CLR,0.02,VWS V14.01,2013-03-22 18:53:00,
2013-03-22 13:59:00,33.3,16.2,30.03,South,190,1.0,1.0,49,0.01,,CLR,0.02,VWS V14.01,2013-03-22 18:59:00,
2013-03-22 14:04:00,33.3,17.6,30.03,South,190,0.0,1.0,52,0.01,,CLR,0.02,VWS V14.01,2013-03-22 19:04:00,
2013-03-22 14:10:00,33.1,16.5,30.03,SSE,166,4.0,8.0,50,0.01,,CLR,0.02,VWS V14.01,2013-03-22 19:10:00,
2013-03-22 14:15:00,33.0,16.9,30.03,South,171,0.0,6.0,51,0.02,,CLR,0.03,VWS V14.01,2013-03-22 19:15:00,
2013-03-22 14:21:00,33.1,17.0,30.03,South,171,0.0,1.0,51,0.02,,CLR,0.03,VWS V14.01,2013-03-22 19:21:00,
2013-03-22 14:26:00,33.3,17.6,30.03,South,171,0.0,5.0,52,0.02,,CLR,0.03,VWS V14.01,2013-03-22 19:26:00,
2013-03-22 14:31:00,33.3,16.7,30.03,South,169,0.0,1.0,50,0.02,,CLR,0.03,VWS V14.01,2013-03-22 19:31:00,
2013-03-22 14:36:00,33.6,16.0,30.03,South,169,0.0,0.0,48,0.02,,CLR,0.03,VWS V14.01,2013-03-22 19:36:00,
2013-03-22 14:41:00,33.7,16.1,30.03,South,169,0.0,4.0,48,0.01,,CLR,0.03,VWS V14.01,2013-03-22 19:41:00,
2013-03-22 14:47:00,34.1,17.0,30.03,SSE,168,2.0,4.0,49,0.01,,CLR,0.03,VWS V14.01,2013-03-22 19:47:00,
2013-03-22 14:52:00,34.0,16.9,30.02,SSE,168,0.0,0.0,49,0.02,,CLR,0.04,VWS V14.01,2013-03-22 19:52:00,
2013-03-22 14:57:00,34.3,17.1,30.02,SSE,168,0.0,1.0,49,0.02,,CLR,0.04,VWS V14.01,2013-03-22 19:57:00,
2013-03-22 15:02:00,34.5,17.3,30.02,SSE,168,0.0,0.0,49,0.02,,CLR,0.04,VWS V14.01,2013-03-22 20:02:00,
2013-03-22 15:07:00,34.8,16.6,30.02,SSE,168,0.0,0.0,47,0.02,,CLR,0.04,VWS V14.01,2013-03-22 20:07:00,
2013-03-22 15:12:00,34.8,16.6,30.02,SSE,168,0.0,0.0,47,0.02,,CLR,0.04,VWS V14.01,2013-03-22 20:12:00,
2013-03-22 15:17:00,34.9,16.7,30.02,SSE,168,0.0,1.0,47,0.01,,CLR,0.04,VWS V14.01,2013-03-22 20:17:00,
2013-03-22 15:23:00,35.3,17.6,30.02,SSE,168,0.0,1.0,48,0.01,,CLR,0.04,VWS V14.01,2013-03-22 20:23:00,
2013-03-22 15:28:00,35.7,17.0,30.02,SSE,168,1.0,2.0,46,0.01,,CLR,0.04,VWS V14.01,2013-03-22 20:28:00,
2013-03-22 15:33:00,35.4,15.1,30.02,SSE,168,0.0,0.0,43,0.01,,CLR,0.04,VWS V14.01,2013-03-22 20:33:00,
2013-03-22 15:38:00,35.0,15.3,30.02,SSE,168,1.0,4.0,44,0.01,,CLR,0.04,VWS V14.01,2013-03-22 20:38:00,
2013-03-22 15:43:00,34.8,16.6,30.02,SSE,168,0.0,0.0,47,0.01,,CLR,0.04,VWS V14.01,2013-03-22 20:43:00,
2013-03-22 15:48:00,35.2,18.0,30.02,SSE,168,0.0,0.0,49,0.02,,CLR,0.05,VWS V14.01,2013-03-22 20:48:00,
2013-03-22 15:53:00,35.5,16.3,30.02,SSE,168,0.0,0.0,45,0.01,,CLR,0.05,VWS V14.01,2013-03-22 20:53:00,
2013-03-22 15:59:00,35.5,16.3,30.02,SSE,168,2.0,2.0,45,0.01,,CLR,0.05,VWS V14.01,2013-03-22 20:59:00,
2013-03-22 16:04:00,35.8,17.6,30.02,SSE,168,0.0,0.0,47,0.01,,CLR,0.05,VWS V14.01,2013-03-22 21:04:00,
2013-03-22 16:09:00,36.1,16.3,30.02,SSE,168,0.0,1.0,44,0.01,,CLR,0.05,VWS V14.01,2013-03-22 21:09:00,
2013-03-22 16:15:00,36.0,16.2,30.02,SSE,168,0.0,0.0,44,0.01,,CLR,0.05,VWS V14.01,2013-03-22 21:15:00,
2013-03-22 16:20:00,36.4,18.1,30.02,SSE,168,1.0,4.0,47,0.01,,CLR,0.05,VWS V14.01,2013-03-22 21:20:00,
2013-03-22 16:25:00,36.8,19.5,30.02,SSE,168,0.0,2.0,49,0.01,,CLR,0.05,VWS V14.01,2013-03-22 21:25:00,
2013-03-22 16:31:00,36.8,18.5,30.02,SSE,168,2.0,2.0,47,0.01,,CLR,0.05,VWS V14.01,2013-03-22 21:31:00,
2013-03-22 16:37:00,36.6,18.3,30.02,SSE,168,0.0,4.0,47,0.01,,CLR,0.05,VWS V14.01,2013-03-22 21:37:00,
2013-03-22 16:42:00,36.5,18.2,30.02,SSE,168,0.0,1.0,47,0.01,,CLR,0.05,VWS V14.01,2013-03-22 21:42:00,
2013-03-22 16:48:00,36.3,18.5,30.02,SSE,168,0.0,0.0,48,0.00,,CLR,0.05,VWS V14.01,2013-03-22 21:48:00,
2013-03-22 16:53:00,36.2,16.9,30.02,SSE,168,0.0,0.0,45,0.00,,CLR,0.05,VWS V14.01,2013-03-22 21:53:00,
2013-03-22 16:59:00,36.0,17.2,30.03,SSE,168,0.0,0.0,46,0.01,,CLR,0.06,VWS V14.01,2013-03-22 21:59:00,
2013-03-22 17:04:00,36.1,18.8,30.03,SSE,168,0.0,0.0,49,0.01,,CLR,0.06,VWS V14.01,2013-03-22 22:04:00,
2013-03-22 17:09:00,35.9,17.1,30.03,SSE,168,0.0,0.0,46,0.01,,CLR,0.06,VWS V14.01,2013-03-22 22:09:00,
2013-03-22 17:14:00,35.9,17.1,30.03,SSE,168,0.0,0.0,46,0.01,,CLR,0.06,VWS V14.01,2013-03-22 22:14:00,
2013-03-22 17:19:00,36.1,18.3,30.03,SSE,168,0.0,0.0,48,0.01,,CLR,0.06,VWS V14.01,2013-03-22 22:19:00,
2013-03-22 17:24:00,36.0,18.2,30.03,SSE,168,0.0,0.0,48,0.01,,CLR,0.06,VWS V14.01,2013-03-22 22:24:00,
2013-03-22 17:29:00,36.1,20.2,30.03,SSE,168,0.0,1.0,52,0.01,,CLR,0.06,VWS V14.01,2013-03-22 22:29:00,
2013-03-22 17:34:00,35.7,18.4,30.03,SSE,168,0.0,0.0,49,0.01,,CLR,0.06,VWS V14.01,2013-03-22 22:34:00,
2013-03-22 17:40:00,35.4,19.5,30.03,SSE,168,0.0,1.0,52,0.01,,CLR,0.06,VWS V14.01,2013-03-22 22:40:00,
2013-03-22 17:45:00,34.9,19.5,30.03,SSE,168,0.0,1.0,53,0.01,,CLR,0.06,VWS V14.01,2013-03-22 22:45:00,
2013-03-22 17:50:00,34.2,18.0,30.03,SSE,168,0.0,0.0,51,0.01,,CLR,0.06,VWS V14.01,2013-03-22 22:50:00,
2013-03-22 17:55:00,33.5,19.1,30.03,SSE,168,0.0,1.0,55,0.01,,CLR,0.06,VWS V14.01,2013-03-22 22:55:00,
2013-03-22 18:00:00,33.0,19.0,30.03,SSE,168,0.0,0.0,56,0.00,,CLR,0.06,VWS V14.01,2013-03-22 23:00:00,
2013-03-22 18:06:00,32.4,18.5,30.03,SSE,168,2.0,2.0,56,0.00,,CLR,0.06,VWS V14.01,2013-03-22 23:06:00,
2013-03-22 18:11:00,31.9,18.0,30.03,SSE,168,0.0,0.0,56,0.00,,CLR,0.06,VWS V14.01,2013-03-22 23:11:00,
2013-03-22 18:17:00,31.3,17.9,30.03,SSE,168,0.0,0.0,57,0.00,,CLR,0.06,VWS V14.01,2013-03-22 23:17:00,
2013-03-22 18:22:00,30.8,17.8,30.04,SSE,168,0.0,0.0,58,0.00,,CLR,0.06,VWS V14.01,2013-03-22 23:22:00,
2013-03-22 18:27:00,30.4,17.8,30.03,SSE,168,0.0,0.0,59,0.00,,CLR,0.06,VWS V14.01,2013-03-22 23:27:00,
2013-03-22 18:33:00,30.1,17.5,30.04,SSE,168,0.0,0.0,59,0.00,,CLR,0.06,VWS V14.01,2013-03-22 23:33:00,
2013-03-22 18:38:00,29.8,18.8,30.03,SSE,168,0.0,0.0,63,0.00,,CLR,0.06,VWS V14.01,2013-03-22 23:38:00,
2013-03-22 18:44:00,29.4,18.7,30.03,SSE,168,0.0,0.0,64,0.00,,CLR,0.06,VWS V14.01,2013-03-22 23:44:00,
2013-03-22 18:50:00,29.0,18.7,30.03,SSE,168,0.0,0.0,65,0.00,,CLR,0.06,VWS V14.01,2013-03-22 23:50:00,
2013-03-22 18:56:00,28.6,19.4,30.03,SSE,168,0.0,1.0,68,0.00,,CLR,0.06,VWS V14.01,2013-03-22 23:56:00,
2013-03-22 19:01:00,28.4,19.5,30.04,SSE,168,1.0,2.0,69,0.00,,CLR,0.06,VWS V14.01,2013-03-23 00:01:00,
2013-03-22 19:06:00,28.1,18.9,30.04,SSE,168,0.0,1.0,68,0.00,,CLR,0.06,VWS V14.01,2013-03-23 00:06:00,
2013-03-22 19:11:00,27.9,19.1,30.04,SSE,168,0.0,1.0,69,0.00,,CLR,0.06,VWS V14.01,2013-03-23 00:11:00,
2013-03-22 19:17:00,27.6,19.1,30.04,SSE,168,0.0,1.0,70,0.00,,CLR,0.06,VWS V14.01,2013-03-23 00:17:00,
2013-03-22 19:22:00,27.4,18.9,30.04,SSE,168,0.0,0.0,70,0.00,,CLR,0.06,VWS V14.01,2013-03-23 00:22:00,
2013-03-22 19:27:00,27.2,18.7,30.04,SSE,168,0.0,0.0,70,0.00,,CLR,0.06,VWS V14.01,2013-03-23 00:27:00,
2013-03-22 19:32:00,26.9,18.8,30.04,SSE,168,0.0,1.0,71,0.00,,CLR,0.06,VWS V14.01,2013-03-23 00:32:00,
2013-03-22 19:37:00,26.7,18.9,30.04,SSE,168,0.0,0.0,72,0.00,,CLR,0.06,VWS V14.01,2013-03-23 00:37:00,
2013-03-22 19:43:00,26.4,18.6,30.04,SSE,168,0.0,0.0,72,0.00,,CLR,0.06,VWS V14.01,2013-03-23 00:43:00,
2013-03-22 19:48:00,26.2,18.4,30.04,SSE,168,0.0,0.0,72,0.00,,CLR,0.06,VWS V14.01,2013-03-23 00:48:00,
2013-03-22 19:53:00,26.0,18.5,30.04,SSE,168,0.0,0.0,73,0.00,,CLR,0.06,VWS V14.01,2013-03-23 00:53:00,
2013-03-22 19:59:00,25.8,18.4,30.04,SSE,168,0.0,0.0,73,0.00,,CLR,0.06,VWS V14.01,2013-03-23 00:59:00,
2013-03-22 20:04:00,25.7,18.3,30.04,SSE,168,0.0,0.0,73,0.00,,CLR,0.06,VWS V14.01,2013-03-23 01:04:00,
2013-03-22 20:10:00,25.6,18.2,30.05,SSE,168,0.0,0.0,73,0.00,,CLR,0.06,VWS V14.01,2013-03-23 01:10:00,
2013-03-22 20:15:00,25.6,17.5,30.04,SSE,168,0.0,0.0,71,0.00,,CLR,0.06,VWS V14.01,2013-03-23 01:15:00,
2013-03-22 20:20:00,25.7,17.6,30.05,SSE,168,0.0,0.0,71,0.00,,CLR,0.06,VWS V14.01,2013-03-23 01:20:00,
2013-03-22 20:26:00,25.7,17.9,30.05,SSE,168,0.0,0.0,72,0.00,,CLR,0.06,VWS V14.01,2013-03-23 01:26:00,
2013-03-22 20:32:00,25.6,18.2,30.05,SSE,168,0.0,0.0,73,0.00,,CLR,0.06,VWS V14.01,2013-03-23 01:32:00,
2013-03-22 20:37:00,25.6,17.8,30.05,SSE,168,0.0,0.0,72,0.00,,CLR,0.06,VWS V14.01,2013-03-23 01:37:00,
2013-03-22 20:43:00,25.6,17.5,30.06,SSE,168,0.0,0.0,71,0.00,,CLR,0.06,VWS V14.01,2013-03-23 01:43:00,
2013-03-22 20:48:00,25.5,17.4,30.05,SSE,168,0.0,0.0,71,0.00,,CLR,0.06,VWS V14.01,2013-03-23 01:48:00,
2013-03-22 20:54:00,25.5,17.8,30.05,SSE,168,0.0,0.0,72,0.00,,CLR,0.06,VWS V14.01,2013-03-23 01:54:00,
2013-03-22 20:59:00,25.4,17.6,30.06,SSE,168,0.0,0.0,72,0.00,,CLR,0.06,VWS V14.01,2013-03-23 01:59:00,
2013-03-22 21:04:00,25.4,17.6,30.06,SSE,168,0.0,1.0,72,0.00,,CLR,0.06,VWS V14.01,2013-03-23 02:04:00,
2013-03-22 21:10:00,25.3,17.5,30.06,SSE,168,0.0,0.0,72,0.00,,CLR,0.06,VWS V14.01,2013-03-23 02:10:00,
2013-03-22 21:16:00,25.1,17.4,30.06,SSE,168,0.0,0.0,72,0.00,,CLR,0.06,VWS V14.01,2013-03-23 02:16:00,
2013-03-22 21:21:00,25.1,17.4,30.06,SSE,168,0.0,0.0,72,0.00,,CLR,0.06,VWS V14.01,2013-03-23 02:21:00,
2013-03-22 21:27:00,25.0,17.3,30.06,SSE,168,0.0,0.0,72,0.00,,CLR,0.06,VWS V14.01,2013-03-23 02:27:00,
2013-03-22 21:32:00,25.0,17.6,30.06,SSE,168,0.0,0.0,73,0.00,,CLR,0.06,VWS V14.01,2013-03-23 02:32:00,
2013-03-22 21:37:00,24.9,17.5,30.07,SSE,168,0.0,0.0,73,0.00,,CLR,0.06,VWS V14.01,2013-03-23 02:37:00,
2013-03-22 21:43:00,24.8,18.0,30.07,SSE,168,0.0,1.0,75,0.00,,CLR,0.06,VWS V14.01,2013-03-23 02:43:00,
2013-03-22 21:48:00,24.7,17.9,30.07,SSE,168,0.0,0.0,75,0.00,,CLR,0.06,VWS V14.01,2013-03-23 02:48:00,
2013-03-22 21:54:00,24.6,17.5,30.07,SSE,168,0.0,0.0,74,0.00,,CLR,0.06,VWS V14.01,2013-03-23 02:54:00,
2013-03-22 21:59:00,24.5,17.7,30.07,SSE,168,0.0,0.0,75,0.00,,CLR,0.06,VWS V14.01,2013-03-23 02:59:00,
2013-03-22 22:04:00,24.5,18.0,30.07,SSE,168,0.0,0.0,76,0.00,,CLR,0.06,VWS V14.01,2013-03-23 03:04:00,
2013-03-22 22:09:00,24.4,17.9,30.07,SSE,168,0.0,0.0,76,0.00,,CLR,0.06,VWS V14.01,2013-03-23 03:09:00,
2013-03-22 22:15:00,24.2,18.0,30.07,SSE,168,0.0,0.0,77,0.00,,CLR,0.06,VWS V14.01,2013-03-23 03:15:00,
2013-03-22 22:21:00,24.0,17.9,30.07,SSE,168,0.0,0.0,77,0.00,,CLR,0.06,VWS V14.01,2013-03-23 03:21:00,
2013-03-22 22:27:00,23.8,17.7,30.07,SSE,168,0.0,0.0,77,0.00,,CLR,0.06,VWS V14.01,2013-03-23 03:27:00,
2013-03-22 22:33:00,23.7,17.9,30.08,SSE,168,0.0,0.0,78,0.00,,CLR,0.06,VWS V14.01,2013-03-23 03:33:00,
2013-03-22 22:39:00,23.6,17.8,30.08,SSE,168,0.0,0.0,78,0.00,,CLR,0.06,VWS V14.01,2013-03-23 03:39:00,
2013-03-22 22:44:00,23.5,17.7,30.08,SSE,168,0.0,0.0,78,0.00,,CLR,0.06,VWS V14.01,2013-03-23 03:44:00,
2013-03-22 22:50:00,23.5,18.0,30.08,SSE,168,0.0,0.0,79,0.00,,CLR,0.06,VWS V14.01,2013-03-23 03:50:00,
2013-03-22 22:55:00,23.4,17.9,30.08,SSE,168,1.0,2.0,79,0.00,,CLR,0.06,VWS V14.01,2013-03-23 03:55:00,
2013-03-22 23:01:00,23.3,18.1,30.08,SSE,168,0.0,0.0,80,0.00,,CLR,0.06,VWS V14.01,2013-03-23 04:01:00,
2013-03-22 23:02:00,23.3,17.8,30.08,SSE,168,0.0,0.0,79,0.00,,CLR,0.06,VWS V14.01,2013-03-23 04:02:00,
2013-03-22 23:03:00,23.3,17.8,30.08,SSE,168,0.0,0.0,79,0.00,,CLR,0.06,VWS V14.01,2013-03-23 04:03:00,
2013-03-22 23:07:00,23.3,17.8,30.08,SSE,168,0.0,0.0,79,0.00,,CLR,0.06,VWS V14.01,2013-03-23 04:07:00,
2013-03-22 23:13:00,23.4,17.6,30.08,SSE,168,0.0,0.0,78,0.00,,CLR,0.06,VWS V14.01,2013-03-23 04:13:00,
2013-03-22 23:19:00,23.4,17.6,30.08,SSE,168,0.0,0.0,78,0.00,,CLR,0.06,VWS V14.01,2013-03-23 04:19:00,
2013-03-22 23:24:00,23.3,17.5,30.08,SSE,168,0.0,0.0,78,0.00,,CLR,0.06,VWS V14.01,2013-03-23 04:24:00,
2013-03-22 23:30:00,23.1,17.3,30.08,SSE,168,0.0,0.0,78,0.00,,CLR,0.06,VWS V14.01,2013-03-23 04:30:00,
2013-03-22 23:36:00,22.9,17.1,30.08,SSE,168,0.0,0.0,78,0.00,,CLR,0.06,VWS V14.01,2013-03-23 04:36:00,
2013-03-22 23:42:00,22.9,17.1,30.08,SSE,168,0.0,0.0,78,0.00,,CLR,0.06,VWS V14.01,2013-03-23 04:42:00,
2013-03-22 23:48:00,22.9,17.1,30.08,SSE,168,0.0,0.0,78,0.00,,CLR,0.06,VWS V14.01,2013-03-23 04:48:00,
2013-03-22 23:53:00,22.9,17.4,30.08,SSE,168,0.0,0.0,79,0.00,,CLR,0.06,VWS V14.01,2013-03-23 04:53:00,
2013-03-22 23:59:00,22.9,17.1,30.08,SSE,168,0.0,0.0,78,0.00,,CLR,0.06,VWS V14.01,2013-03-23 04:59:00,